Regional Weather Roundup
Issued by NWS Newport/Morehead, NC

Current Version | Previous Version | Graphics & Text | Print | Product List | Glossary Off
Versions: 1 2 3 4 5 6 7 8 9 10 11 12 13 14 15 16 17 18 19 20 21 22 23 24 25 26 27 28 29 30 31 32 33 34 35 36 37 38 39 40 41 42 43 44 45 46 47 48 49 50

000
ASUS42 KMHX 210113
RWRMHX
WEATHER ROUNDUP FOR EASTERN NORTH CAROLINA
NATIONAL WEATHER SERVICE NEWPORT/MOREHEAD CITY NC
800 PM EST MON NOV 20 2017

NOTE: "FAIR" INDICATES FEW OR NO CLOUDS BELOW 12,000 FEET
WITH NO SIGNIFICANT WEATHER AND/OR OBSTRUCTIONS TO VISIBILITY

NCZ015>017-031-032-045>047-102-103-210200-
NORTH COAST

CITY           SKY/WX    TMP DP  RH WIND       PRES   REMARKS
EDENTON        CLEAR     40  36  86 CALM      30.27R
ELIZABETH CITY CLEAR     42  36  79 S3        30.26R
KITTY HAWK     CLEAR     45  33  61 CALM      30.25S
MANTEO         CLEAR     38  34  85 CALM      30.27R

$$

NCZ045>047-081-094-103-104-210200-
CENTRAL COAST

CITY           SKY/WX    TMP DP  RH WIND       PRES   REMARKS
FRISCO         CLEAR     38  35  89 NE3       30.27R

$$

NCZ095-097-098-100-101-210200-
SOUTHERN COAST

CITY           SKY/WX    TMP DP  RH WIND       PRES   REMARKS
BEAUFORT       PTCLDY    41  37  86 CALM      30.27R
CEDAR ISLAND   NOT AVBL
JACKSONVILLE   CLOUDY    40  38  93 CALM      30.25S
PINEY ISLAND     N/A    N/A N/A N/A S5        30.26S
WILMINGTON     PTCLDY    41  37  86 CALM      30.26R


$$

NCZ011>013-027>030-043-044-078>080-089-090>093-098-210200-
COASTAL PLAIN

CITY           SKY/WX    TMP DP  RH WIND       PRES   REMARKS
AHOSKIE        PTCLDY    35  33  92 CALM      30.26R
CLINTON        CLOUDY    40  34  80 CALM      30.26R
ELIZABETHTOWN  NOT AVBL
GOLDSBORO      CLOUDY    38  33  79 CALM      30.23S
GREENVILLE     CLOUDY    37  34  87 CALM      30.26S
HAVELOCK       CLOUDY    39  32  76 CALM      30.27S
KENANSVILLE    CLOUDY    34  30  86 CALM      30.26R
KINSTON        CLOUDY    36  32  87 CALM      30.26R
NEW BERN       CLOUDY    37  37 100 CALM      30.27R
RICHLANDS      CLOUDY    37  35  92 CALM      30.26S
ROCKY MOUNT    CLOUDY    37  34  89 CALM      30.25S
WASHINGTON     CLOUDY    40  36  85 CALM      30.26S
WHITEVILLE     PTCLDY    42  36  80 CALM      30.25R

$$

AMZ130-135-150-152-154-156-158-170-250-252-270-ANZ085-086-088-633-658-670-210200-
MARINE OBSERVATIONS

STATION/POSITION TIME  TEMP    WIND        PRES    WAVE   SWELL
                       AIR SEA DIR/SP/G            HT/PER HT/PER
                 (UTC) (F)     (DEG/KT/KT) (MB)    (FT/S) (FT/S)
CHESAPEAKE LIGHT NOT AVBL
64 E VA BEACH    0050   52 60  290/  4/  6 1025.0    3/ 6   3/ 6
DUCK             0036   50 60  190/  5/  6 1024.1
2 E DUCK         0100      61                N/A     2/ 6
OREGON INLET     0048           CALM  /  1   N/A
13E OREGON INLT  0048      62                N/A     4/ 7   3/ 7
HATTERAS CG      0036   48 58   80/  3/  4 1024.6
DIAMOND BUOY     0050   55 72   30/  6/  8 1024.8    3/ 8   3/ 8
CAPE LOOKOUT     0000           10/  6/  7 1024.8
BEAUFORT LAB     0036   49 59   70/  3/  4 1024.6
30 SE NEW RVR IN 0008   56 68   90/  6/  8 1024.5
30 SE NEW RVR IN 0100      68                N/A     2/ 8
27 SE WRIGHTSVLE 0008   56 68   70/  4/ 10 1024.1
5 SE WRIGHTSVLE  0008   57 64   90/  4/  6 1024.0
225 S CAPE HAT   2350   67 76   60/ 14/ 17 1022.6    5/ 7   3/ 7
41 SE CHARLESTON 0050   62 73   80/ 10/ 16 1023.3    3/ 6   2/ 6

$$




USA.gov is the U.S. government's official web portal to all federal, state and local government web resources and services.